Regional Weather Roundup
Issued by NWS

Home | Current Version | Previous Version | Graphics & Text | Print | Product List | Glossary On
Versions: 1 2 3 4 5 6 7 8 9 10 11 12 13 14 15 16 17 18 19 20 21 22 23 24 25 26 27 28 29 30 31 32 33 34 35 36 37 38 39 40 41 42 43 44 45 46 47 48 49 50
677
ASUS45 KBOU 241107
RWRCO

WEATHER ROUNDUP FOR COLORADO
NATIONAL WEATHER SERVICE DENVER/BOULDER CO
500 AM MDT SUN JUL 24 2016

NOTE: "FAIR" INDICATES FEW OR NO CLOUDS BELOW 12000 FEET WITH NO
SIGNIFICANT WEATHER AND/OR OBSTRUCTIONS TO VISIBILITY.

COZ001>005-013-030-031-241200-
...NORTHWEST COLORADO...

CITY           SKY/WX    TMP DP  RH WIND       PRES   REMARKS
CRAIG          FAIR      54  40  59 SW3       30.22R
HAYDEN         FAIR      61  39  44 SE5       30.24R
MEEKER         FAIR      58  45  62 NE6       30.23S
MOUNT WERNER   NOT AVBL
STEAMBOAT SPGS FAIR      58  40  50 CALM      30.26S
WALDEN         FAIR      54  37  54 E5        30.36S
$$

COZ006>008-011-241200-
...WEST CENTRAL VALLEYS...

CITY           SKY/WX    TMP DP  RH WIND       PRES   REMARKS
GRAND JUNCTION FAIR      75  42  30 S15       30.08F
MONTROSE       FAIR      66  43  43 SE7       30.22R
EAGLE          FAIR      57  39  51 SW6       30.29S
RIFLE          MOCLDY    67  45  45 E6        30.21R
DELTA          FAIR      69  48  48 S7        30.17R
NUCLA          FAIR      72  41  33 E10G20    30.22F
$$

COZ017>023-064>068-241200-
...SOUTHWEST COLORADO...

CITY           SKY/WX    TMP DP  RH WIND       PRES   REMARKS
DURANGO        FAIR      58  43  57 NW5       30.25R
CORTEZ         FAIR      62  44  51 NE7       30.19S
PAGOSA SPRINGS FAIR      58  43  56 CALM      30.34S
TELLURIDE      MOCLDY    60  37  43 CALM      30.49R
WOLF CREEK PAS FAIR      50  37  62 SW13      30.69R
$$

COZ009-010-012-014-032>034-037-058>063-241200-
...CENTRAL COLORADO...

CITY           SKY/WX    TMP DP  RH WIND       PRES   REMARKS
ASPEN          FAIR      52  47  83 SW9       30.35F
BUENA VISTA    FAIR      56  40  56 NW3       30.39F
COPPER MTN     FAIR      54  32  43 CALM      30.67F
BERTHOUD PASS  FAIR      41  28  60 N15G29    30.71R
COTTONWOOD PAS FAIR      59  41  51 SW7       30.51F
GUNNISON       FAIR      48  39  71 CALM      30.39R
KREMMLING      FAIR      55  45  67 S14       30.35F
LEADVILLE      FAIR      47  40  76 N7        30.52S
MONARCH PASS   FAIR      50  37  62 MISG      30.77R
SALIDA         FAIR      60  45  57 NW6       30.44R
SUNLIGHT       CLOUDY    54  39  58 NW3       30.62R
WILKERSON PASS FAIR      46  39  76 W9G17     30.64S
$$

COZ069>075-241200-
...SAN LUIS VALLEY/SANGRE DE CRISTO MOUNTAINS...

CITY           SKY/WX    TMP DP  RH WIND       PRES   REMARKS
ALAMOSA        MOCLDY    59  49  69 SE6       30.31S
LA VETA PASS   FAIR      54  43  66 CALM      30.52R
SAGUACHE       FAIR      54  41  62 NW8       30.36S
$$

COZ035-036-038>040-241200-
...NORTHERN COLORADO FRONT RANGE...

CITY           SKY/WX    TMP DP  RH WIND       PRES   REMARKS
DENVER INTL AP FAIR      66  52  60 W12       30.17R
DMNS CITY PARK   N/A     64  51  64 SW5       30.17R
AURORA         PTCLDY    69  50  51 S13       30.18R
FRONT RANGE AP NOT AVBL
ERIE MUNI ARPT FAIR      60  54  79 CALM      30.15S
BOULDER MUN AP FAIR      63  50  63 CALM      30.16R
CENTENNIAL     MOCLDY    68  47  46 S9        30.19S
BROOMFIELD     FAIR      66  50  55 NW6       30.18S
LONGMONT       FAIR      64  54  71 S6        30.17R
$$

COZ041-046-047-076>085-087-088-241200-
...PIKES PEAK/PALMER DIVIDE AND SOUTHERN FOOTHILLS...

CITY           SKY/WX    TMP DP  RH WIND       PRES   REMARKS
COLO. SPRINGS  MOCLDY    65  52  62 E9        30.24S
A. F. ACADEMY  FAIR      57  49  76 N7        30.25S
SCHRIEVER AFB  NOT AVBL
ELLICOTT       FAIR     N/A N/A N/A CALM      30.22S
FALCON         FAIR      59  50  71 W5        30.30R
FORT CARSON    FAIR      61  53  75 NW6       30.19S
LIMON          FAIR      58  55  90 N6        30.17R
MONUMENT HILL  FAIR      55  48  76 SW5       30.31R
TRINIDAD       NOT AVBL
$$

COZ042>045-048>051-090-091-241200-
...NORTHEAST COLORADO...

CITY           SKY/WX    TMP DP  RH WIND       PRES   REMARKS
GREELEY ARPT   FAIR      61  54  77 W3        30.13S
AKRON          FAIR      67  52  58 SE5       30.13R
BURLINGTON     FAIR      71  59  65 NE7       30.05F
WRAY           FAIR      68  59  73 CALM      30.06R
STERLING       FAIR      61  57  88 SE5       30.09R
HOLYOKE        FAIR      66  61  82 W7        30.06S
FORT MORGAN    FAIR      65  50  59 NW5       30.12R
$$

COZ086-089-092>099-241200-
...SOUTHEAST COLORADO...

CITY           SKY/WX    TMP DP  RH WIND       PRES   REMARKS
PUEBLO         FAIR      67  52  58 CALM      30.12R
LA JUNTA       FAIR      68  61  78 W7        30.08R
LAMAR          FAIR      66  63  90 SW6       30.03R
SPRINGFIELD      N/A     66  56  70 W7        30.08F
$$




USA.gov is the U.S. government's official web portal to all federal, state and local government web resources and services.